Content
SEND FEEDBACK

Daily
Averages
Monthly
Summary
United States of America

BOX ELDER, SOUTH DAKOTA


Home > North America > United States > South Dakota
Elevation: 3170 feet     Latitude: 44 09N     Longitude: 103 06W

WEATHER
 
SELECT A DAY
Number of Records: 210,207;   Date Range: 1/1/95 - 12/27/14
 
SHARE

PRINT THIS DATA

[ ← Previous Day ]
WEATHER ALMANAC - APRIL 23, 2013
[ Next Day → ]
[ °C ]   °F
Weather ElementAverageHighLow
Temperature28.9 °F80.6 °F (9:55 am)12.9 °F (3:55 am)
Dewpoint17.1 °F57.2 °F (9:55 am)6.8 °F (6:55 am)
Humidity63.4 %93 % (10:55 am)42 % (11:58 am)
Barometer30.32 in30.46 in (1:55 am)30.17 in (11:58 pm)
Wind Speed4.7 mph9.2 mph (8:58 pm)
Weather ElementAverage
Visibility10 mi
Wind DirectionSSW (210.4 °)

Weather ElementTotal
Precipitation0.03 in
Heating Degree Days18.3 (Base 65)
Averaged from 25 records on April 23, 2013
WEATHER CONDITIONS BREAKOUT
WIND DIRECTION BREAKOUT
WEATHER BY HOUR - APRIL 23, 2013
[ °C ]   °F
Local TimeTemperatureDewpointHumidityBarometerVisibilityWind DirectionWind SpeedGust SpeedPrecipitationEventsConditions
1:55 AM20.8 °F13.8 °F74 %30.46 in10.0 miNorth (360°)5.8 mphOvercast
2:55 AM15.3 °F9.7 °F79 %30.46 in10.0 miCalmPartly Cloudy
3:55 AM12.9 °F7.3 °F78 %30.44 in10.0 miWNW (290°)4.6 mphClear
4:55 AM13.1 °F8.4 °F82 %30.43 in10.0 miWest (270°)4.6 mphClear
5:55 AM13.5 °F8.1 °F79 %30.42 in10.0 miWest (280°)3.5 mphClear
6:55 AM13.1 °F6.8 °F76 %30.43 in10.0 miWest (270°)3.5 mphClear
7:55 AM16.9 °F9.3 °F72 %30.42 in10.0 miCalmClear
8:55 AM21.9 °F13.1 °F69 %30.40 in10.0 miWest (280°)3.5 mphClear
9:55 AM80.6 °F57.2 °F45 %30.37 in10.0 miWest (270°)5.8 mphPartly Cloudy
10:55 AM32.0 °F30.2 °F93 %30.36 in10.0 miNNW (340°)8.1 mphPartly Cloudy
10:58 AM31.1 °F14.9 °F51 %30.23 in10.0 miNorth (10°)4.6 mph0.01 inClear
11:58 AM33.1 °F12.4 °F42 %30.34 in10.0 miNorth (350°)4.6 mph0.01 inClear
12:58 PM33.6 °F12.7 °F42 %30.30 in10.0 miNorth (360°)3.5 mphClear
1:58 PM32.2 °F13.6 °F46 %30.29 in10.0 miVariable1.2 mph0.01 inClear
2:40 PM32.0 °F15.8 °F51 %30.29 in10.0 miSSE (150°)4.6 mphClear
2:58 PM33.4 °F17.1 °F51 %30.29 in10.0 miSouth (190°)6.9 mphClear
3:58 PM33.8 °F15.8 °F48 %30.28 in10.0 miSouth (190°)3.5 mphClear
4:58 PM34.0 °F18.7 °F54 %30.27 in10.0 miSouth (190°)4.6 mphClear
5:58 PM34.5 °F18.9 °F53 %30.25 in10.0 miSouth (190°)4.6 mphClear
6:58 PM34.3 °F21.0 °F58 %30.25 in10.0 miSouth (190°)6.9 mphClear
7:58 PM32.7 °F21.6 °F64 %30.23 in10.0 miSSW (210°)5.8 mphClear
8:58 PM29.5 °F21.7 °F73 %30.22 in10.0 miSW (220°)9.2 mphClear
9:58 PM31.1 °F21.0 °F66 %30.20 in10.0 miSW (220°)9.2 mphClear
10:58 PM28.8 °F20.5 °F71 %30.18 in10.0 miSSW (210°)3.5 mphClear
11:58 PM27.9 °F18.7 °F68 %30.17 in10.0 miSW (220°)5.8 mphClear
Hourly data recorded from KRCA, located miles away from Box Elder, South Dakota







STORIES FROM OUR PARTNERS